Location: Bowden
(51.9167°N, 114.0333°W)
Time: 11:10:23
(UTC+00:00)

Envisat - Pass Details

Date: 06 December 2021
Orbit: 764 x 766 km, 98.2° (Epoch: 28 January)

Event Time Altitude Azimuth Distance (km) Brightness Sun altitude
Rises 00:33:49 0° 196° (SSW) 3,222 6.9 -9.8°
Reaches altitude 10° 00:36:25 10° 208° (SSW) 2,301 6.3 -10.1°
Maximum altitude 00:40:45 28° 267° (W) 1,405 5.2 -10.8°
Drops below altitude 10° 00:45:09 10° 326° (NNW) 2,316 5.6 -11.4°
Sets 00:47:47 0° 338° (NNW) 3,248 6.3 -11.8°
